Main page
METAR-TAF:

METAR-TAF

Airports :

Ula, Norway

Oil platform

latitude: 59-06-39N, longitude: 2-50-45E, elevation: 0 m

Current weather observation

The report was made 15 minutes ago, at 13:20 UTC
Wind 24 kt from the East/Southeast
Temperature 12°C
Humidity 94%
Pressure 998 hPa
Visibility 10 km or more

METAR: ENLA 221320Z AUTO 12024KT 9999NDV NCD 12/11 Q0998 W///S5

Time: 15:35 (13:35 UTC)


TAF: missing

Weather observations and forecasts of more than 4000 airports (METAR and TAF reports).

The available stations are represented by yellow and red dots on the map.

Hover mouse over dot to see the name of the station.

Then click to see weather observations and forecasts.

To change the map : click on the green buttons with a black cross to zoom in, on the green button with a dash to zoom out, or on the green arrows for adjacent maps.


METAR-TAF: